Regional Weather Roundup
Issued by NWS Cleveland, OH

Home | Current Version | Previous Version | Graphics & Text | Print | Product List | Glossary On
Versions: 1 2 3 4 5 6 7 8 9 10 11 12 13 14 15 16 17 18 19 20 21 22 23 24 25 26 27 28 29 30 31 32 33 34 35 36 37 38 39 40 41 42 43 44 45 46 47 48 49 50
000
ASUS41 KCLE 250102
RWRCLE
OHIO REGIONAL WEATHER ROUNDUP
NATIONAL WEATHER SERVICE CLEVELAND, OH
900 PM EDT FRI OCT 24 2014

NOTE: "FAIR" INDICATES FEW OR NO CLOUDS BELOW 12,000 FEET WITH NO
SIGNIFICANT WEATHER AND/OR OBSTRUCTIONS TO VISIBILITY.

OHZ001>008-015>018-024>027-034-035-043-044-250200-
   NORTHWEST OHIO

CITY           SKY/WX    TMP DP  RH WIND       PRES   REMARKS
DEFIANCE       PTCLDY    49  45  86 CALM      30.00F
FINDLAY        PTCLDY    54  46  74 CALM      30.00S
TOLEDO EXPRESS MOCLDY    48  44  86 CALM      29.99F
TOLEDO EXEC    CLOUDY    52  45  77 S3        30.00F
LIMA           CLEAR     53  43  68 SW3       30.01S
$$

OHZ009>014-019>023-028>033-038-089-250200-
   NORTHEAST OHIO

CITY           SKY/WX    TMP DP  RH WIND       PRES   REMARKS
CLE-HOPKINS    CLOUDY    56  45  66 S3        30.02F
CLE-LAKEFRONT  CLOUDY    57  45  64 CALM      29.99F
CUY CO. ARPT   MOCLDY    54  48  82 CALM      30.01S
LORAIN-ELYRIA  CLOUDY    54  46  74 CALM      30.01S
ASHTABULA      CLOUDY    48  44  86 CALM      30.01S
AKRON-CANTON   CLOUDY    55  42  61 W3        30.01S
WOOSTER        CLOUDY    56  45  66 CALM      30.02S
MANSFIELD      CLEAR     54  40  59 S3        30.01F
YOUNGSTOWN     PTCLDY    49  38  65 CALM      30.00S
$$

OHZ042-051>053-060>062-070>072-077>081-250200-
  SOUTHWEST OHIO

CITY           SKY/WX    TMP DP  RH WIND       PRES   REMARKS
CINC-COVINGTON PTCLDY    55  40  56 W3        30.05R
CINC-LUNKEN    PTCLDY    47  43  86 CALM      30.06R
HAMILTON         N/A     46  42  86 CALM      30.05R
DAYTON         MOCLDY    57  41  55 SW7       30.04S
WRIGHT-PAT AFB PTCLDY    53  42  66 SE1       30.03S
DAYTON GENERAL MOCLDY    53  41  63 S5        30.03S
WILMINGTON     PTCLDY    52  37  56 CALM      30.04S
$$

OHZ036-037-039>041-045>050-054>059-063>069-073>076-082>088-250200-
  CENTRAL AND SOUTHEAST OHIO

CITY           SKY/WX    TMP DP  RH WIND       PRES   REMARKS
COLUMBUS       PTCLDY    52  38  58 CALM      30.02S
OSU AIRPORT    PTCLDY    51  38  60 CALM      30.03R HAZE
BOLTON FIELD   CLEAR     51  38  60 W3        30.04R
RICKENBACK AFB CLEAR     51  38  62 SW3       30.03R
NEWARK         CLEAR     45  41  86 CALM      30.02S
MARION         PTCLDY    53  40  61 S5        30.01F
LANCASTER      CLEAR     43  39  86 CALM      30.04R
ZANESVILLE     CLEAR     49  39  68 CALM      30.03S
NEW PHILLY     MOCLDY    48  42  80 CALM      30.03R
$$



USA.gov is the U.S. government's official web portal to all federal, state and local government web resources and services.